www.pogodaiklimat.ru

АРХИВ ПОГОДЫ в Филадельфии

Время (UTC), дата Ветер
(напр.,м/с)
 
Видим.   Явления Облачность Т
(С)
Тd
(С)
f
(%)
Тe
(С)
Тes
(С)
Комфортность

P
(гПа)

Po
(гПа)
Тmin
(С)
Tmax
(С)
R
(мм)
SD
(см)
15:54 16.06 В  10 км  слабый дождь, дымка  10/10 240 м  +18.9  +16.7  87  +20  +20    1008.7  1008.5         
16:03 16.06 СВ  10 км  слабый дождь, дымка  10/10 240 м  +18.9  +17.2  90  +21  +21  комфорт    1008.5         
16:20 16.06 В  11 км  слабый дождь  10/10 270 м  +18.9  +17.2  90  +21  +21  комфорт    1008.8         
16:33 16.06 В  5 км  сильный дождь, дымка  10/10 270 м  +18.9  +17.2  90  +20  +20      1008.5         
16:40 16.06 В  8 км  дождь, дымка  10/10 270 м  +18.9  +17.2  90  +21  +21  комфорт    1008.5         
16:48 16.06 СВ  11 км  слабый дождь  10/10 270 м  +19.0  +17.0  88  +21  +21  комфорт    1008.8         
16:54 16.06 СВ  11 км  слабый дождь  10/10 270 м  +19.4  +17.2  87  +22  +22  комфорт  1008.7  1008.5         
17:20 16.06 В  16 км  слабый дождь  10/10 270 м  +20.0  +17.8  87  +23  +23  комфорт    1008.5         
17:36 16.06 В  16 км    10/10 300 м  +20.6  +17.8  84  +25  +25  комфорт    1008.5         
17:54 16.06 В  16 км    10/10 300 м  +20.6  +17.2  81  +24  +24  комфорт  1008.8  1008.5  +17.8  +20.6  6.1   
18:54 16.06 В  16 км    10/10 420 м  +20.0  +15.0  73  +23  +23  комфорт  1008.6  1008.5         
19:34 16.06 В  16 км    10/10 420 м  +21.1  +16.1  73  +24  +24  комфорт    1007.8         
19:54 16.06 В  16 км    10/10 420 м  +21.1  +16.7  76  +25  +25  комфорт  1008.1  1007.8         
20:09 16.06 В  16 км    10/10 480 м  +20.6  +16.7  78  +24  +24  комфорт    1007.8         
20:54 16.06 В  16 км    10/10 480 м  +20.6  +15.6  73  +24  +24  комфорт  1007.3  1007.1         
21:54 16.06 В  16 км    10/10 480 м  +20.6  +15.6  73  +24  +24  комфорт  1006.6  1006.4         
22:54 16.06 ЮВ  16 км    10/10 1080 м  +20.6  +15.0  70  +24  +24  комфорт  1007.2  1007.1         
23:54 16.06 В  16 км    10/10 1290 м  +20.6  +15.0  70  +24  +24  комфорт  1007.4  1007.1  +20.0  +21.1     
00:54 17.06 ЮВ  16 км    10/10 1260 м  +20.0  +15.6  76  +23  +23  комфорт  1007.2  1007.1         
01:54 17.06 штиль  16 км    10/5 1500 м
[средняя верхняя] 
+19.4  +15.6  79  +21  +21  комфорт  1007.7  1007.4         
02:54 17.06 штиль  16 км    10/2 1650 м
[средняя верхняя] 
+18.9  +15.0  78  +20  +20    1008.1  1007.8         
03:54 17.06 штиль  16 км    10/0 3600 м
[средняя верхняя] 
+19.4  +14.4  73  +21  +21  комфорт  1008.8  1008.5         
04:54 17.06 ЮВ  16 км    10/0 2400 м
[средняя верхняя] 
+18.3  +14.4  78  +19  +19    1008.5  1008.5         
05:54 17.06 В  16 км    10/0 2400 м
[средняя верхняя] 
+18.3  +13.9  76  +19  +19    1008.5  1008.1  +17.8  +20.6     
06:54 17.06 В  16 км    10/0 2400 м
[средняя верхняя] 
+18.3  +12.8  70  +19  +19    1009.2  1008.8         
07:54 17.06 В  16 км    10/0 2700 м
[средняя] 
+18.3  +12.8  70  +19  +19    1009.3  1009.1         
08:54 17.06 СВ  16 км    10/0 2700 м
[средняя] 
+17.2  +12.8  75  +17  +17    1009.4  1009.1         
09:54 17.06 СВ  16 км    10/0 2850 м
[средняя верхняя] 
+17.8  +12.8  73  +18  +18    1009.3  1009.1         
10:54 17.06 СВ  16 км    8/0 2850 м
[средняя верхняя] 
+18.3  +12.8  70  +19  +19    1010.1  1009.8         
11:54 17.06 СВ  16 км    8/0 3000 м
[средняя верхняя] 
+20.0  +12.8  63  +22  +22  комфорт  1010.9  1010.5  +17.2  +20.0     
12:54 17.06 СВ  16 км    8/0 3000 м
[средняя верхняя] 
+21.7  +12.2  55  +24  +26  комфорт  1011.8  1011.5         
13:54 17.06 В  16 км    8/0 3000 м
[средняя верхняя] 
+23.9  +15.0  57  +27  +29  жарко  1012.2  1011.8         
14:54 17.06 В  16 км    8/2 1350 м
[средняя верхняя] 
+24.4  +13.9  52  +27  +31  жарко  1012.8  1012.5         
15:54 17.06 В  16 км    8/2 1350 м
[средняя верхняя] 
+26.1  +13.9  47  +28  +34  жарко  1013.2  1012.9         
16:54 17.06 В  16 км    5/2 1500 м
[средняя верхняя] 
+27.8  +13.3  41  +30  +39  жарко  1013.2  1012.9         
17:54 17.06 В  16 км    8/2 1500 м
[средняя верхняя] 
+27.8  +12.8  40  +29  +35  жарко  1013.2  1012.9  +20.0  +28.3     
18:54 17.06 В  16 км    8/0 2100 м
[средняя верхняя] 
+28.9  +13.3  38  +30  +37  жарко  1013.4  1013.2         
19:54 17.06 СВ  4
{8} 
16 км    8/0 2250 м
[средняя верхняя] 
+26.7  +13.3  44  +29  +32  жарко  1013.7  1013.5         
20:54 17.06 В  8
{11} 
16 км    8/2 1380 м
[средняя верхняя] 
+26.1  +14.4  48  +28  +29  жарко  1014.4  1014.2         
21:54 17.06 ЮВ  16 км    5/0 2100 м
[средняя верхняя] 
+25.6  +13.9  48  +28  +32  жарко  1014.9  1014.5         
22:54 17.06 В  16 км    2/0 2100 м
[средняя] 
+24.4  +11.1  43  +26  +27  жарко  1015.8  1015.6         
23:54 17.06 В  16 км    5/0 2550 м
[средняя] 
+22.8  +9.4  42  +24  +25  комфорт  1016.6  1016.2  +22.2  +28.9     
00:54 18.06 ЮВ  16 км    10/0 2250 м
[средняя] 
+21.1  +8.9  46  +22  +22  комфорт  1017.8  1017.6         
01:54 18.06 В  16 км    8/0 2250 м
[средняя] 
+19.4  +9.4  52  +20  +20    1019.0  1018.6         
02:54 18.06 ЮВ  16 км    8/5 1950 м
[средняя] 
+19.4  +9.4  52  +21  +21  комфорт  1020.0  1019.6         
03:54 18.06 ЮВ  16 км    8/0 2250 м
[средняя] 
+19.4  +9.4  52  +21  +21  комфорт  1020.3  1020.0         
04:54 18.06 В  16 км    2/0 2250 м
[средняя] 
+17.2  +10.0  63  +17  +17    1020.5  1020.3         
05:54 18.06 штиль  16 км    2/0 2100 м
[средняя] 
+17.2  +10.0  63  +17  +17    1020.3  1020.0  +17.2  +22.8     

 

Местоположение метеостанции Philadelphia International Airport: широта 39.8733 долгота -75.2268 высота над уровнем моря 2 м.

В архиве по умолчанию представлена погода в Филадельфии за последние 1-2 суток. Обновление информации о фактической погоде в базе происходит ежечасно! Архивные данные за месяц целиком и за предыдущие месяцы Вы можете получить, выбрав интересующий диапазон дат из раскрывающегося списка и нажав кнопку "Ввод!".

Внимание! Архив погоды МЕТАР в базе сайта в настоящее время начинается c 1 января 2013 г. Нет смысла пытаться выбрать более раннюю дату.

Внимание! Время в таблицах - всемирное. Для получения местного времени необходимо прибавить поправку, которая в Филадельфии равна -5 ч.

Ветер - указаны скорость ветра в м/с и направление, откуда дует ветер: С - северный, СВ - северо-восточный, В - восточный, ЮВ - юго-восточный, Ю - южный, ЮЗ - юго-западный, З - западный, СЗ - северо-западный.
Видимость - горизонтальная дальность видимости в метрах или километрах. При видимости от 1 до 10 км при отсутствии осадков обычно наблюдается дымка, при ухудшении видимости до 1 км и менее - туман. В сухую погоду видимость может ухудшаться дымом, пылью или мглою.
Атмосферные явления - указаны явления, наблюдавшиеся в указанный момент времени.
Облачность - указаны через наклонную черту верхняя и нижняя облачность в баллах и высота нижней границы облаков в метрах. Внимание: облачность, как и прочие метеорологические величины в США измеряются автоматическими метеостанциями. Указанные значения в баллах носят условный характер и показывают процент времени, в течение которого, в среднем, лазерный луч высотомера отражался от облаков обратно.
T - Температура воздуха - температура, измеренная на высоте 2 м над землей.
Td - Температура точки росы - температура, при понижении до которой содержащийся в воздухе водяной пар достигнет насыщения.
f - Относительная влажность воздуха - влажноcть воздуха, измеренная на высоте 2 м над землей.
Te - Эффективная температура - температура, которую ощущает одетый по сезону человек в тени. Характеристика душности погоды. При расчете учитывается влияние влажности воздуха и скорости ветра на теплоощущения человека.
Tes - Эффективная температура на солнце - температура, которую ощущает человек, с поправкой на солнечный нагрев. Характеристика знойности погоды. Зависит от высоты солнца над горизонтом, облачности и скорости ветра. Ночью, в пасмурную погоду, а также при ветре 12 м/с и более поправка равна нулю.
P - Атмосферное давление - приведенное к уровню моря атмосферное давление.
Po - Атмосферное давление - измеренное на уровне метеостанции атмосферное давление.
Tmin - Минимальная температура - минимум температуры воздуха на высоте 2 м над землей.
Tmax - Максимальная температура - максимум температуры воздуха на высоте 2 м над землей.
R - Количество осадков - Количество выпавших осадков за 3 или 6 часов, мм.
SD - Снежный покров - Высота снежного покрова, см.